Date String (YYYY-MM-DD hh:mm:ss) UTC,Instrument flags,absolute air pressure of the measurement (hPa),sample flow rate (lpm),inlet stack bypass flow (lpm),air temperature of the measurement (°C),ambient temperature measured by the external sensor (°C),aerosol sample conditioner tube jacket temperature (°C),OPC LED temperature (°C),internal box temperature (°C),relative humidity of the measurement (%),span deviation,mass concentration of particles derived from Lorenz-Mie calculation of OPC scattering (μg/m³),mass concentration of particles derived from Lorenz-Mie calculation of OPC scattering (μg/m³),mass concentration of particles derived from Lorenz-Mie calculation of OPC scattering (μg/m³)
DateTimeUTC,F1_M11,P_M11,Q1_M11,Q2_M11,T1_M11,T2_M11,T3_M11,T4_M11,T5_M11,U1_M11,ZSPAN_M11,X2_M11,X0_M11,X1_M11
2023-09-28 10:00:00,SystemResetWarning,0828.1,5.00,000.00,028.8,027.6,000.0,037.2,030.5,10.8,0000.0,0004.80,0008.26,0004.35
2023-09-28 10:01:00,SystemResetWarning,0828.1,5.00,000.00,028.8,027.7,000.0,037.2,030.5,10.7,0000.0,0004.81,0007.96,0004.35
2023-09-28 10:02:00,SystemResetWarning,0828.1,5.00,000.00,028.8,027.7,000.0,037.2,030.6,10.8,0000.0,0004.81,0008.23,0004.34
2023-09-28 10:03:00,SystemResetWarning,0828.0,4.99,000.00,028.8,027.7,000.0,037.2,030.6,10.8,0000.0,0004.76,0008.26,0004.33
2023-09-28 10:04:00,SystemResetWarning,0828.0,4.99,000.00,028.9,027.7,000.0,037.2,030.6,10.7,0000.0,0004.73,0008.18,0004.32
2023-09-28 10:05:00,SystemResetWarning,0828.1,5.00,000.00,028.9,027.8,000.0,037.3,030.6,10.8,0000.0,0004.69,0007.91,0004.30
2023-09-28 10:06:00,SystemResetWarning,0828.2,5.00,000.00,028.9,027.8,000.0,037.3,030.7,10.8,0000.0,0004.68,0007.90,0004.28
2023-09-28 10:07:00,SystemResetWarning,0828.2,5.00,000.00,028.9,027.8,000.0,037.3,030.7,11.0,0000.0,0004.67,0008.32,0004.28
2023-09-28 10:08:00,SystemResetWarning,0828.2,5.00,000.00,029.0,027.8,000.0,037.3,030.7,11.1,0000.0,0004.68,0009.12,0004.26
2023-09-28 10:09:00,SystemResetWarning,0828.2,5.00,000.00,029.0,027.7,000.0,037.3,030.7,11.0,0000.0,0004.71,0009.26,0004.26
2023-09-28 10:10:00,SystemResetWarning,0828.2,4.99,000.00,029.0,025.9,000.0,037.3,030.6,11.0,0000.0,0004.69,0009.24,0004.24
2023-09-28 10:11:00,SystemResetWarning,0828.1,5.01,000.00,028.9,024.7,000.0,037.2,030.4,11.0,0000.0,0004.74,0009.32,0004.23
2023-09-28 10:12:00,SystemResetWarning,0828.1,5.01,000.00,028.8,024.6,000.0,037.2,030.2,11.0,0000.0,0004.74,0009.39,0004.23
2023-09-28 10:13:00,SystemResetWarning,0828.1,4.99,000.00,028.6,024.9,000.0,037.2,030.0,11.1,0000.0,0004.73,0009.13,0004.24
2023-09-28 10:14:00,SystemResetWarning,0828.1,5.00,000.00,028.6,025.3,000.0,037.2,030.0,11.3,0000.0,0004.73,0009.69,0004.24
2023-09-28 10:15:00,SystemResetWarning,0828.0,5.00,000.00,028.5,025.6,000.0,037.2,030.1,11.4,0000.0,0004.74,0009.81,0004.23
2023-09-28 10:16:00,SystemResetWarning,0828.0,5.00,000.00,028.5,026.0,000.0,037.1,030.1,11.4,0000.0,0004.73,0009.76,0004.23
2023-09-28 10:17:00,SystemResetWarning,0828.1,5.00,000.00,028.5,026.3,000.0,037.1,030.1,11.4,0000.0,0004.70,0009.71,0004.23
2023-09-28 10:18:00,SystemResetWarning,0828.1,5.00,000.00,028.5,026.5,000.0,037.1,030.2,11.4,0000.0,0004.70,0009.48,0004.24
2023-09-28 10:19:00,SystemResetWarning,0828.1,4.99,000.00,028.5,026.7,000.0,037.1,030.2,11.4,0000.0,0004.68,0008.48,0004.26
2023-09-28 10:20:00,SystemResetWarning,0828.0,5.00,000.00,028.6,026.9,000.0,037.1,030.2,11.4,0000.0,0004.65,0008.28,0004.26
2023-09-28 10:21:00,SystemResetWarning,0828.2,4.99,000.00,028.6,027.0,000.0,037.1,030.3,11.4,0000.0,0004.63,0008.24,0004.25
2023-09-28 10:22:00,SystemResetWarning,0828.2,5.00,000.00,028.6,027.1,000.0,037.1,030.3,11.4,0000.0,0004.58,0008.60,0004.24
2023-09-28 10:23:00,SystemResetWarning,0828.2,5.00,000.00,028.6,027.2,000.0,037.1,030.3,11.5,0000.0,0004.55,0008.92,0004.22
2023-09-28 10:24:00,SystemResetWarning,0828.1,5.00,000.00,028.6,027.3,000.0,037.1,030.4,11.5,0000.0,0004.54,0009.27,0004.20
2023-09-28 10:25:00,SystemResetWarning,0828.1,5.00,000.00,028.7,027.4,000.0,037.1,030.4,11.6,0000.0,0004.53,0008.90,0004.18
2023-09-28 10:26:00,SystemResetWarning,0828.2,5.00,000.00,028.7,027.4,000.0,037.1,030.4,11.5,0000.0,0004.49,0008.68,0004.16
2023-09-28 10:27:00,SystemResetWarning,0828.2,4.99,000.00,028.7,027.5,000.0,037.1,030.5,11.5,0000.0,0004.45,0008.86,0004.14
2023-09-28 10:28:00,SystemResetWarning,0828.3,4.99,000.00,028.7,027.5,000.0,037.2,030.5,11.5,0000.0,0004.46,0008.89,0004.12
2023-09-28 10:29:00,SystemResetWarning,0828.2,5.00,000.00,028.8,027.6,000.0,037.2,030.5,11.4,0000.0,0004.44,0009.52,0004.09
2023-09-28 10:30:00,SystemResetWarning,0828.1,5.00,000.00,028.8,027.6,000.0,037.2,030.5,11.4,0000.0,0004.43,0009.70,0004.07
2023-09-28 10:31:00,SystemResetWarning,0828.2,5.01,000.00,028.8,027.6,000.0,037.2,030.5,11.4,0000.0,0004.40,0009.66,0004.05
2023-09-28 10:32:00,SystemResetWarning,0828.2,5.01,000.00,028.8,027.7,000.0,037.2,030.6,11.3,0000.0,0004.40,0009.62,0004.04
2023-09-28 10:33:00,SystemResetWarning,0828.2,5.00,000.00,028.9,027.7,000.0,037.2,030.6,11.5,0000.0,0004.41,0009.19,0004.04
2023-09-28 10:34:00,SystemResetWarning,0828.2,5.00,000.00,028.9,027.7,000.0,037.2,030.6,12.0,0000.0,0004.42,0008.97,0004.04
2023-09-28 10:35:00,SystemResetWarning,0828.2,4.99,000.00,028.9,027.7,000.0,037.2,030.6,11.7,0000.0,0004.41,0008.58,0004.04
2023-09-28 10:36:00,SystemResetWarning,0828.2,5.00,000.00,028.9,027.8,000.0,037.3,030.6,11.5,0000.0,0004.43,0008.68,0004.04
2023-09-28 10:37:00,SystemResetWarning,0828.2,5.00,000.00,028.9,027.8,000.0,037.3,030.7,11.5,0000.0,0004.46,0009.09,0004.03
2023-09-28 10:38:00,SystemResetWarning,0828.2,5.00,000.00,028.9,027.8,000.0,037.3,030.7,11.7,0000.0,0004.47,0009.91,0004.04
2023-09-28 10:39:00,SystemResetWarning,0828.3,5.00,000.00,029.0,027.8,000.0,037.3,030.7,11.5,0000.0,0004.46,0010.17,0004.04
2023-09-28 10:40:00,SystemResetWarning,0828.2,5.00,000.00,029.0,027.6,000.0,037.3,030.7,11.6,0000.0,0004.46,0009.84,0004.05
2023-09-28 10:41:00,SystemResetWarning,0828.2,5.00,000.00,028.9,025.8,000.0,037.3,030.6,11.6,0000.0,0004.46,0009.50,0004.06
2023-09-28 10:42:00,SystemResetWarning,0828.3,5.01,000.00,028.9,024.7,000.0,037.2,030.4,11.6,0000.0,0004.48,0009.55,0004.06
2023-09-28 10:43:00,SystemResetWarning,0828.3,5.01,000.00,028.8,024.6,000.0,037.2,030.2,11.9,0000.0,0004.50,0009.59,0004.07
2023-09-28 10:44:00,SystemResetWarning,0828.3,4.99,000.00,028.6,024.9,000.0,037.2,030.1,12.0,0000.0,0004.50,0009.59,0004.08
2023-09-28 10:45:00,SystemResetWarning,0828.3,5.00,000.00,028.6,025.3,000.0,037.2,030.0,12.1,0000.0,0004.52,0009.54,0004.08
2023-09-28 10:46:00,SystemResetWarning,0828.3,5.00,000.00,028.5,025.7,000.0,037.1,030.0,12.2,0000.0,0004.52,0009.47,0004.09
2023-09-28 10:47:00,SystemResetWarning,0828.3,5.00,000.00,028.5,026.0,000.0,037.1,030.1,12.6,0000.0,0004.51,0009.41,0004.11
2023-09-28 10:48:00,SystemResetWarning,0828.2,5.00,000.00,028.5,026.3,000.0,037.1,030.1,13.0,0000.0,0004.53,0009.38,0004.12
2023-09-28 10:49:00,SystemResetWarning,0828.2,5.00,000.00,028.5,026.5,000.0,037.1,030.1,13.1,0000.0,0004.54,0008.23,0004.13
2023-09-28 10:50:00,SystemResetWarning,0828.2,5.00,000.00,028.5,026.7,000.0,037.1,030.2,13.2,0000.0,0004.55,0007.84,0004.14
2023-09-28 10:51:00,SystemResetWarning,0828.3,5.00,000.00,028.5,026.8,000.0,037.1,030.2,13.2,0000.0,0004.55,0007.63,0004.14
2023-09-28 10:52:00,SystemResetWarning,0828.2,4.99,000.00,028.5,026.9,000.0,037.1,030.2,13.5,0000.0,0004.54,0007.63,0004.14
2023-09-28 10:53:00,SystemResetWarning,0828.2,4.99,000.00,028.6,027.0,000.0,037.1,030.3,13.1,0000.0,0004.56,0007.64,0004.14
2023-09-28 10:54:00,SystemResetWarning,0828.3,5.00,000.00,028.6,027.1,000.0,037.1,030.3,13.3,0000.0,0004.56,0007.62,0004.15
2023-09-28 10:55:00,SystemResetWarning,0828.4,5.00,000.00,028.6,027.2,000.0,037.1,030.3,13.6,0000.0,0004.57,0007.65,0004.16
2023-09-28 10:56:00,SystemResetWarning,0828.4,5.00,000.00,028.6,027.2,000.0,037.1,030.3,13.4,0000.0,0004.57,0007.87,0004.17
2023-09-28 10:57:00,SystemResetWarning,0828.4,5.00,000.00,028.6,027.3,000.0,037.1,030.4,13.5,0000.0,0004.62,0008.45,0004.18
2023-09-28 10:58:00,SystemResetWarning,0828.4,5.00,000.00,028.6,027.4,000.0,037.1,030.4,13.6,0000.0,0004.60,0008.83,0004.16
2023-09-28 10:59:00,SystemResetWarning,0828.4,5.00,000.00,028.7,027.4,000.0,037.1,030.4,13.8,0000.0,0004.60,0008.60,0004.15
